K7MT-WX Weather Reports


Display with metric or nautical units.
time (UTC)temp
F
wind
direction
speed
MPH
gust
MPH
rain 1hr
in
rain 24hr
in
rain mn
in
humidity
%
barometer
mb
20260504173340 58 281 1.0 1.0 0.00 0.00 0.00 36 1015.0
20260504171840 57 261 2.0 3.0 0.00 0.00 0.00 40 1015.2
20260504170340 55 239 1.0 2.0 0.00 0.00 0.00 42 1015.1
20260504160340 53 154 1.0 2.0 0.00 0.00 0.00 46 1015.6
20260504150340 50 213 0.0 1.0 0.00 0.00 0.00 51 1015.9
20260504140310 47 76 1.0 2.0 0.00 0.00 0.00 57 1015.9
20260504130310 44 173 0.0 1.0 0.00 0.00 0.00 64 1015.4
20260504120310 43 150 1.0 3.0 0.00 0.00 0.00 62 1014.9
20260504110310 45 213 0.0 0.0 0.00 0.00 0.00 55 1015.0
20260504100310 47 156 6.0 7.0 0.00 0.00 0.00 49 1014.3
20260504081810 52 204 9.0 12.0 0.00 0.00 0.00 49 1011.3
20260504080310 44 241 1.0 2.0 0.00 0.00 0.00 60 1011.0
20260504070310 49 1 0.0 0.0 0.00 0.00 0.00 48 1009.2
20260504050310 53 128 0.0 0.0 0.00 0.00 0.00 36 1009.2
20260504044810 52 254 0.0 1.0 0.00 0.00 0.00 40 1009.2
20260504043310 54 232 0.0 0.0 0.00 0.00 0.00 40 1009.2
20260504041810 54 232 0.0 1.0 0.00 0.00 0.00 38 1009.0
20260504040310 56 232 0.0 0.0 0.00 0.00 0.00 35 1008.9
20260504034810 58 149 0.0 2.0 0.00 0.00 0.00 35 1008.7
20260504033310 59 101 2.0 3.0 0.00 0.00 0.00 34 1008.5
20260504031810 61 134 3.0 7.0 0.00 0.00 0.00 32 1008.4
20260504030310 61 129 5.0 6.0 0.00 0.00 0.00 32 1008.2
20260504024810 63 161 2.0 3.0 0.00 0.00 0.00 28 1008.1
20260504023310 64 155 1.0 3.0 0.00 0.00 0.00 29 1008.0
20260504021810 66 159 2.0 3.0 0.00 0.00 0.00 28 1007.9
20260504020310 69 145 2.0 7.0 0.00 0.00 0.00 25 1007.8
20260504014810 70 164 2.0 6.0 0.00 0.00 0.00 24 1007.8
20260504013310 71 153 3.0 6.0 0.00 0.00 0.00 22 1007.9
20260504011810 71 129 5.0 7.0 0.00 0.00 0.00 23 1008.0
20260504010310 73 118 6.0 7.0 0.00 0.00 0.00 25 1008.0
20260504004810 74 125 7.0 8.0 0.00 0.00 0.00 25 1008.1
20260504003310 74 131 3.0 9.0 0.00 0.00 0.00 26 1008.2
20260504001810 75 120 6.0 7.0 0.00 0.00 0.00 25 1008.3
20260504000310 75 154 6.0 7.0 0.00 0.00 0.00 24 1008.4
20260503234810 75 146 6.0 9.0 0.00 0.00 0.00 21 1008.4
20260503233310 75 160 7.0 14.0 0.00 0.00 0.00 21 1008.5
20260503231810 76 136 7.0 12.0 0.00 0.00 0.00 19 1008.6
20260503230310 76 118 3.0 12.0 0.00 0.00 0.00 20 1008.8
20260503224810 75 122 9.0 12.0 0.00 0.00 0.00 23 1009.1
20260503223310 76 187 3.0 3.0 0.00 0.00 0.00 18 1009.1
20260503221810 76 148 5.0 7.0 0.00 0.00 0.00 19 1009.3
20260503220310 75 145 6.0 9.0 0.00 0.00 0.00 22 1009.5
20260503214810 74 179 2.0 3.0 0.00 0.00 0.00 25 1009.7
20260503213310 75 159 1.0 5.0 0.00 0.00 0.00 24 1010.0
20260503211740 74 289 1.0 3.0 0.00 0.00 0.00 24 1010.2
20260503210240 74 45 3.0 5.0 0.00 0.00 0.00 26 1010.6
20260503204740 75 192 2.0 2.0 0.00 0.00 0.00 25 1010.8
20260503203210 75 92 3.0 6.0 0.00 0.00 0.00 24 1011.0
20260503201710 73 109 2.0 3.0 0.00 0.00 0.00 27 1011.1
20260503200140 74 290 6.0 7.0 0.00 0.00 0.00 26 1011.4
20260503194610 73 282 3.0 5.0 0.00 0.00 0.00 27 1011.7
20260503193110 72 87 1.0 3.0 0.00 0.00 0.00 27 1011.9
20260503191610 72 243 1.0 2.0 0.00 0.00 0.00 31 1012.1
20260503190110 71 206 2.0 6.0 0.00 0.00 0.00 32 1012.4
20260503184610 70 62 2.0 5.0 0.00 0.00 0.00 32 1012.7
20260503183110 71 208 2.0 3.0 0.00 0.00 0.00 33 1013.0
20260503181610 70 207 1.0 3.0 0.00 0.00 0.00 36 1013.3
20260503180110 69 248 1.0 2.0 0.00 0.00 0.00 39 1013.6
20260503174610 67 275 2.0 3.0 0.00 0.00 0.00 40 1013.9